sat.trackr.live / text

‹ back to catalog

STARLINK-35946

NORAD 66522 · 2025-265G

PAYLOAD ACTIVE UNKNOWN

§ Identity

Operator
Country
US
Launch date
2025-11-19
Launch site
AFETR
Launch vehicle
Mass (kg)
RCS (m²)

Purposes: comms

External: N2YO · Heavens-Above · Gunter

§ Orbital elements

Epoch: 2026-05-25T05:06:44.243712Z

Period
94.27 min
Inclination
43.0003°
Eccentricity
0.0000949
Mean motion
15.27596429 rev/d
Perigee alt
482.3 km
Apogee alt
483.7 km
Semi-major
6,861.1 km
B*
4.9956e-4
RAAN
206.0350°
Arg perigee
276.0339°
Mean anomaly
84.0404°
Rev number
2,881

§ Raw data

STARLINK-359461 66522U 25265G   26145.21301208  .00013517  00000+0  49956-3 0  99982 66522  43.0003 206.0350 0000949 276.0339  84.0404 15.27596429 28810

JSON: /api/v1/satellites/66522 · /tle

For live sub-satellite position, see the globe view (requires WebGL).

§ Visibility from observer

Set your observer location to see the next 7 days of passes ≥ 10°. The values pass through the URL so the page stays shareable.

No JS? Fill the form by hand. The geolocation button needs JavaScript.